Regional Weather Roundup
Issued by NWS

Home | Current Version | Previous Version | Graphics & Text | Print | Product List | Glossary Off
Versions: 1 2 3 4 5 6 7 8 9 10 11 12 13 14 15 16 17 18 19 20 21 22 23 24 25 26 27 28 29 30 31 32 33 34 35 36 37 38 39 40 41 42 43 44 45 46 47 48 49 50

000
ASUS43 KTOP 221659
RWRKS

WEATHER ROUNDUP FOR KANSAS
NATIONAL WEATHER SERVICE GOODLAND KS
1200 PM CDT TUE JUL 22 2014

NOTE:  "FAIR" INDICATES FEW OR NO CLOUDS BELOW 12,000 FEET WITH NO
SIGNIFICANT WEATHER AND/OR OBSTRUCTIONS TO VISIBILITY.

KSZ001>006-013>018-027>032-041>047-221800-
NORTHWEST KANSAS

CITY           SKY/WX    TMP DP  RH WIND       PRES   REMARKS
GOODLAND       SUNNY     87  61  41 NE12      30.18R
HAYS           MOSUNNY   90  64  43 SW9       30.09F
HILL CITY      SUNNY     90  63  40 S7        30.09S
RUSSELL        MOSUNNY   89  68  49 S6        30.06F
$$

KSZ061>065-074>080-084>089-221800-
SOUTHWEST KANSAS

CITY           SKY/WX    TMP DP  RH WIND       PRES   REMARKS
DODGE CITY     SUNNY     87  68  52 S8        30.14R
ELKHART          N/A     86  67  53 S10         N/A
GARDEN CITY    SUNNY     87  68  52 S13       30.13F
GREAT BEND     SUNNY     91  70  49 SW6       30.07F HX  97
LIBERAL        SUNNY     88  66  48 S6        30.16S
$$

KSZ066>073-081>083-090>101-221800-
SOUTHEAST KANSAS

CITY           SKY/WX    TMP DP  RH WIND       PRES   REMARKS
CHANUTE        SUNNY     90  74  59 W13       30.08S HX  99
COFFEYVILLE    SUNNY     88  74  63 SW13      30.08S HX  96
HUTCHINSON     SUNNY     94  71  47 W7        30.08R HX 101
MEDICINE LODGE   N/A     91  73  55 S7        30.07F HX  99
NEWTON         SUNNY     91  70  49 W5        30.13R HX  97
PARSONS        SUNNY     89  74  60 SW9       30.09S HX  98
WICHITA INTL   MOSUNNY   90  74  59 SW10      30.07S HX  99
WICHITA JABRA  SUNNY     89  75  63 SW12      30.08R HX  99
WINFIELD       SUNNY     89  77  67 SW9       30.09F HX 101
$$

KSZ007>012-019>026-033>040-048>060-102>105-221800-
NORTHEAST KANSAS

CITY           SKY/WX    TMP DP  RH WIND       PRES   REMARKS
CONCORDIA      MOSUNNY   95  66  38 SW7       30.04S HX  98
EMPORIA        SUNNY     92  73  53 W7        30.07R HX 100
LAWRENCE       SUNNY     91  76  61 SW9       30.04F HX 103
MANHATTAN      MOSUNNY   94  68  42 SW9       30.03S HX  98
OLATHE IND     SUNNY     90  76  63 SW10      30.06S HX 101
OLATHE EXE     SUNNY     87  76  69 SW9       30.06R HX  97
SALINA         SUNNY     96  68  39 VRB3      30.05F HX 101
TOPEKA BILLARD SUNNY     93  73  52 CALM      30.03F HX 102
TOPEKA FORBES  SUNNY     93  73  52 SW8       30.04F HX 102
$$



USA.gov is the U.S. government's official web portal to all federal, state and local government web resources and services.